Time,TemperatureF,DewpointF,PressureIn,WindDirection,WindDirectionDegrees,WindSpeedMPH,WindSpeedGustMPH,Humidity,HourlyPrecipIn,Conditions,Clouds,dailyrainin,SolarRadiationWatts/m^2,SoftwareType,DateUTC
2013-08-11 00:22:00,79.0,74.0,-100.00,ESE,115,5.0,-999.0,85,0.00,,,-99.99,0.000000,,2013-08-11 04:22:00,
2013-08-11 00:32:00,79.0,74.0,-100.00,ESE,110,5.0,-999.0,85,0.00,,,-99.99,0.000000,,2013-08-11 04:32:00,
2013-08-11 00:53:00,78.0,74.0,-100.00,ESE,112,4.0,-999.0,86,0.00,,,-99.99,0.000000,,2013-08-11 04:53:00,
2013-08-11 01:02:00,78.0,74.0,-100.00,ESE,115,5.0,-999.0,87,0.00,,,-99.99,0.000000,,2013-08-11 05:02:00,
2013-08-11 01:25:00,78.0,75.0,-100.00,SE,124,4.0,-999.0,88,0.00,,,-99.99,0.000000,,2013-08-11 05:25:00,
2013-08-11 01:57:00,77.0,74.0,-100.00,ESE,108,4.0,-999.0,89,0.00,,,-99.99,0.000000,,2013-08-11 05:57:00,
2013-08-11 02:04:00,77.0,74.0,-100.00,East,96,3.0,-999.0,90,0.00,,,-99.99,0.000000,,2013-08-11 06:04:00,
2013-08-11 02:26:00,76.0,73.0,-100.00,East,87,3.0,-999.0,90,0.00,,,-99.99,0.000000,,2013-08-11 06:26:00,
2013-08-11 02:35:00,76.0,73.0,-100.00,East,80,3.0,-999.0,91,0.00,,,-99.99,0.000000,,2013-08-11 06:35:00,
2013-08-11 02:57:00,75.0,73.0,-100.00,East,82,3.0,-999.0,92,0.00,,,-99.99,0.000000,,2013-08-11 06:57:00,
2013-08-11 03:24:00,75.0,72.0,-100.00,ENE,74,3.0,-999.0,93,0.00,,,-99.99,0.000000,,2013-08-11 07:24:00,
2013-08-11 03:56:00,75.0,73.0,-100.00,East,83,2.0,-999.0,93,0.00,,,-99.99,0.000000,,2013-08-11 07:56:00,
2013-08-11 04:09:00,74.0,73.0,-100.00,East,89,3.0,-999.0,94,0.00,,,-99.99,0.000000,,2013-08-11 08:09:00,
2013-08-11 04:26:00,75.0,73.0,-100.00,East,87,4.0,-999.0,94,0.00,,,-99.99,0.000000,,2013-08-11 08:26:00,
2013-08-11 04:59:00,74.0,73.0,-100.00,ENE,68,3.0,-999.0,94,0.00,,,-99.99,0.000000,,2013-08-11 08:59:00,
2013-08-11 05:29:00,74.0,72.0,-100.00,NE,53,3.0,-999.0,95,0.00,,,-99.99,0.000000,,2013-08-11 09:29:00,
2013-08-11 06:01:00,74.0,73.0,-100.00,East,85,3.0,-999.0,95,0.00,,,-99.99,0.000000,,2013-08-11 10:01:00,
2013-08-11 06:57:00,74.0,73.0,-100.00,East,92,2.0,-999.0,96,0.00,,,-99.99,0.000000,,2013-08-11 10:57:00,
2013-08-11 07:24:00,74.0,72.0,-100.00,East,83,3.0,-999.0,96,0.00,,,-99.99,3.000000,,2013-08-11 11:24:00,
2013-08-11 08:00:00,74.0,73.0,-100.00,ENE,76,2.0,-999.0,96,0.00,,,-99.99,31.700001,,2013-08-11 12:00:00,
2013-08-11 08:29:00,76.0,75.0,-100.00,East,84,3.0,-999.0,96,0.00,,,-99.99,122.500000,,2013-08-11 12:29:00,
2013-08-11 08:56:00,77.0,76.0,-100.00,ESE,102,2.0,-999.0,95,0.00,,,-99.99,181.000000,,2013-08-11 12:56:00,
2013-08-11 09:16:00,78.0,77.0,-100.00,ESE,105,3.0,-999.0,95,0.00,,,-99.99,257.799988,,2013-08-11 13:16:00,
2013-08-11 09:26:00,79.0,78.0,-100.00,ESE,118,4.0,-999.0,94,0.00,,,-99.99,292.000000,,2013-08-11 13:26:00,
2013-08-11 09:58:00,81.0,78.0,-100.00,SE,135,7.0,-999.0,91,0.00,,,-99.99,423.100006,,2013-08-11 13:58:00,
2013-08-11 10:24:00,83.0,77.0,-100.00,SE,145,8.0,-999.0,84,0.00,,,-99.99,522.799988,,2013-08-11 14:24:00,
2013-08-11 10:57:00,84.0,76.0,-100.00,ESE,121,9.0,-999.0,75,0.00,,,-99.99,604.099976,,2013-08-11 14:57:00,
2013-08-11 11:24:00,85.0,76.0,-100.00,SE,128,8.0,-999.0,73,0.00,,,-99.99,681.299988,,2013-08-11 15:24:00,
2013-08-11 12:00:00,86.0,75.0,-100.00,ESE,119,6.0,-999.0,70,0.00,,,-99.99,744.000000,,2013-08-11 16:00:00,
2013-08-11 12:29:00,87.0,75.0,-100.00,ESE,123,7.0,-999.0,66,0.00,,,-99.99,794.000000,,2013-08-11 16:29:00,
2013-08-11 12:58:00,88.0,74.0,-100.00,SE,131,6.0,-999.0,64,0.00,,,-99.99,832.000000,,2013-08-11 16:58:00,
2013-08-11 13:25:00,89.0,73.0,-100.00,ESE,111,6.0,-999.0,60,0.00,,,-99.99,866.000000,,2013-08-11 17:25:00,
2013-08-11 13:36:00,89.0,73.0,-100.00,ESE,111,6.0,-999.0,60,0.00,,,-99.99,866.000000,,2013-08-11 17:36:00,
2013-08-11 13:58:00,89.0,73.0,-100.00,SE,136,7.0,-999.0,59,0.00,,,-99.99,792.000000,,2013-08-11 17:58:00,
2013-08-11 14:28:00,90.0,73.0,-100.00,SE,140,7.0,-999.0,58,0.00,,,-99.99,879.000000,,2013-08-11 18:28:00,
2013-08-11 15:16:00,91.0,73.0,-100.00,SE,142,6.0,-999.0,56,0.00,,,-99.99,858.000000,,2013-08-11 19:16:00,
2013-08-11 15:26:00,91.0,73.0,-100.00,SE,141,8.0,-999.0,55,0.00,,,-99.99,837.000000,,2013-08-11 19:26:00,
2013-08-11 15:33:00,91.0,72.0,-100.00,SE,142,8.0,-999.0,53,0.00,,,-99.99,821.000000,,2013-08-11 19:33:00,
2013-08-11 16:00:00,92.0,72.0,-100.00,SE,146,7.0,-999.0,53,0.00,,,-99.99,799.000000,,2013-08-11 20:00:00,
2013-08-11 16:28:00,92.0,73.0,-100.00,SSE,149,8.0,-999.0,53,0.00,,,-99.99,763.000000,,2013-08-11 20:28:00,
2013-08-11 16:58:00,92.0,72.0,-100.00,SSE,155,7.0,-999.0,52,0.00,,,-99.99,625.099976,,2013-08-11 20:58:00,
2013-08-11 17:27:00,92.0,73.0,-100.00,SSE,158,8.0,-999.0,53,0.00,,,-99.99,567.500000,,2013-08-11 21:27:00,
2013-08-11 18:25:00,92.0,71.0,-100.00,SE,141,8.0,-999.0,50,0.00,,,-99.99,397.799988,,2013-08-11 22:25:00,
2013-08-11 18:58:00,92.0,72.0,-100.00,SE,142,7.0,-999.0,51,0.00,,,-99.99,243.199997,,2013-08-11 22:58:00,
2013-08-11 19:29:00,90.0,73.0,-100.00,East,93,6.0,-999.0,57,0.00,,,-99.99,113.000000,,2013-08-11 23:29:00,
2013-08-11 19:35:00,89.0,75.0,-100.00,East,94,9.0,-999.0,63,0.00,,,-99.99,59.200001,,2013-08-11 23:35:00,
2013-08-11 19:57:00,87.0,76.0,-100.00,East,97,8.0,-999.0,68,0.00,,,-99.99,37.400002,,2013-08-11 23:57:00,
2013-08-11 20:25:00,86.0,75.0,-100.00,East,93,9.0,-999.0,71,0.00,,,-99.99,13.900000,,2013-08-12 00:25:00,
2013-08-11 20:59:00,84.0,75.0,-100.00,East,92,7.0,-999.0,73,0.00,,,-99.99,0.200000,,2013-08-12 00:59:00,
2013-08-11 21:26:00,83.0,74.0,-100.00,East,88,5.0,-999.0,75,0.00,,,-99.99,0.000000,,2013-08-12 01:26:00,
2013-08-11 22:25:00,81.0,74.0,-100.00,ESE,111,6.0,-999.0,79,0.00,,,-99.99,0.000000,,2013-08-12 02:25:00,
2013-08-11 23:00:00,80.0,73.0,-100.00,ESE,113,7.0,-999.0,78,0.00,,,-99.99,0.000000,,2013-08-12 03:00:00,
2013-08-11 23:25:00,80.0,73.0,-100.00,ESE,117,7.0,-999.0,80,0.00,,,-99.99,0.000000,,2013-08-12 03:25:00,